Location: Krakow
(50.0830°N, 19.9170°E)
Time: 11:12:18
(UTC+01:00)

Transit 2A - Pass Details

Date: 15 February 2023
Orbit: 591 x 964 km, 66.7° (Epoch: 21 March)

Event Time Altitude Azimuth Distance (km) Brightness Sun altitude
Rises 15:38:43 0° 250° (WSW) 3,127 10.9 10.5°
Reaches altitude 10° 15:41:12 10° 260° (W) 2,269 9.9 10.2°
Maximum altitude 15:45:54 33° 324° (NW) 1,331 7.4 9.5°
Drops below altitude 10° 15:51:05 10° 28° (NNE) 2,508 8.2 8.8°
Sets 15:53:58 0° 38° (NE) 3,507 8.8 8.4°
